| time (UTC) | temp C | wind direction | speed KPH | gust KPH | rain 1hr cm | rain 24hr cm | rain mn cm | humidity % | barometer mb |
| 20260902161540 | -17 | 50 | 24.1 | 41.8 | 0.00 | 0.00 | 0.00 | 1017.1 | |
| 20260902160028 | -17 | 36 | 17.7 | 37.0 | 0.00 | 0.00 | 0.00 | 1017.0 | |
| 20260902154530 | -17 | 62 | 17.7 | 37.0 | 0.00 | 0.00 | 0.00 | 1016.9 | |
| 20260902153018 | -17 | 25 | 22.5 | 35.4 | 0.00 | 0.00 | 0.00 | 1016.9 | |
| 20260902151514 | -17 | 36 | 12.9 | 38.6 | 0.00 | 0.00 | 0.00 | 1017.3 | |
| 20260902150009 | -17 | 87 | 20.9 | 41.8 | 0.00 | 0.00 | 0.00 | 1017.3 | |
| 20260902144511 | -17 | 89 | 19.3 | 35.4 | 0.00 | 0.00 | 0.00 | 1017.6 | |
| 20260902143008 | -17 | 60 | 20.9 | 35.4 | 0.00 | 0.00 | 0.00 | 1017.4 | |
| 20260902141516 | -17 | 30 | 14.5 | 33.8 | 0.00 | 0.00 | 0.00 | 1017.5 | |
| 20260902140007 | -17 | 92 | 17.7 | 30.6 | 0.00 | 0.00 | 0.00 | 1017.5 | |
| 20260902134506 | -17 | 26 | 9.7 | 30.6 | 0.00 | 0.00 | 0.00 | 1017.5 | |
| 20260902133042 | -17 | 68 | 12.9 | 35.4 | 0.00 | 0.00 | 0.00 | 1017.6 | |
| 20260902131541 | -17 | 73 | 19.3 | 33.8 | 0.00 | 0.00 | 0.00 | 1017.6 | |
| 20260902130042 | -17 | 41 | 12.9 | 27.4 | 0.00 | 0.00 | 0.00 | 1017.8 | |
| 20260902124540 | -17 | 29 | 16.1 | 37.0 | 0.00 | 0.00 | 0.00 | 1018.1 | |
| 20260902123043 | -17 | 52 | 19.3 | 33.8 | 0.00 | 0.00 | 0.00 | 1018.1 | |
| 20260902121538 | -17 | 41 | 20.9 | 37.0 | 0.00 | 0.00 | 0.00 | 1018.3 | |
| 20260902120035 | -17 | 28 | 19.3 | 32.2 | 0.00 | 0.00 | 0.00 | 1018.5 | |
| 20260902114602 | -17 | 355 | 24.1 | 37.0 | 0.00 | 0.00 | 0.00 | 1018.5 | |
| 20260902113027 | -17 | 46 | 11.3 | 30.6 | 0.00 | 0.00 | 0.00 | 1018.7 | |
| 20260902111522 | -17 | 29 | 14.5 | 29.0 | 0.00 | 0.00 | 0.00 | 1018.7 | |
| 20260902110025 | -17 | 20 | 16.1 | 29.0 | 0.00 | 0.00 | 0.00 | 1018.7 | |
| 20260902104522 | -17 | 1 | 16.1 | 30.6 | 0.00 | 0.00 | 0.00 | 1018.7 | |
| 20260902103017 | -17 | 23 | 14.5 | 29.0 | 0.00 | 0.00 | 0.00 | 1018.5 | |
| 20260902101506 | -17 | 41 | 4.8 | 24.1 | 0.00 | 0.00 | 0.00 | 1018.6 | |
| 20260902100012 | -17 | 8 | 0.0 | 9.7 | 0.00 | 0.00 | 0.00 | 1018.6 | |
| 20260902094505 | -17 | 3 | 11.3 | 22.5 | 0.00 | 0.00 | 0.00 | 1018.6 | |
| 20260902093001 | -17 | 339 | 9.7 | 17.7 | 0.00 | 0.00 | 0.00 | 1018.6 | |
| 20260902091558 | -17 | 356 | 4.8 | 20.9 | 0.00 | 0.00 | 0.00 | 1018.5 | |
| 20260902090059 | -17 | 28 | 0.0 | 12.9 | 0.00 | 0.00 | 0.00 | 1018.5 | |
| 20260902084547 | -17 | 238 | 6.4 | 12.9 | 0.00 | 0.00 | 0.00 | 1018.2 | |
| 20260902083045 | -17 | 243 | 3.2 | 11.3 | 0.00 | 0.00 | 0.00 | 1018.1 | |
| 20260902081541 | -17 | 212 | 1.6 | 12.9 | 0.00 | 0.00 | 0.00 | 1017.8 | |
| 20260902080033 | -17 | 248 | 8.0 | 25.7 | 0.00 | 0.00 | 0.00 | 1017.6 | |
| 20260902074539 | -17 | 229 | 6.4 | 12.9 | 0.00 | 0.00 | 0.00 | 1017.6 | |
| 20260902073025 | -17 | 247 | 1.6 | 8.0 | 0.00 | 0.00 | 0.00 | 1017.5 | |
| 20260902071521 | -17 | 252 | 0.0 | 0.0 | 0.00 | 0.00 | 0.00 | 1017.4 | |
| 20260902070017 | -17 | 260 | 4.8 | 17.7 | 0.00 | 0.00 | 0.00 | 1017.3 | |
| 20260902064512 | -17 | 75 | 9.7 | 33.8 | 0.00 | 0.00 | 0.00 | 1017.4 | |
| 20260902063016 | -17 | 303 | 16.1 | 30.6 | 0.00 | 0.00 | 0.00 | 1017.3 | |
| 20260902061521 | -17 | 287 | 6.4 | 25.7 | 0.00 | 0.00 | 0.00 | 1017.2 | |
| 20260902060111 | -17 | 273 | 4.8 | 16.1 | 0.00 | 0.00 | 0.00 | 1017.1 | |
| 20260902054559 | -17 | 325 | 8.0 | 14.5 | 0.00 | 0.00 | 0.00 | 1017.0 | |
| 20260902053102 | -17 | 238 | 8.0 | 17.7 | 0.00 | 0.00 | 0.00 | 1016.9 | |
| 20260902051555 | -17 | 54 | 8.0 | 33.8 | 0.00 | 0.00 | 0.00 | 1016.8 | |
| 20260902050047 | -17 | 354 | 6.4 | 29.0 | 0.00 | 0.00 | 0.00 | 1016.7 | |
| 20260902044540 | -17 | 227 | 16.1 | 32.2 | 0.00 | 0.00 | 0.00 | 1016.5 | |
| 20260902043037 | -17 | 31 | 17.7 | 30.6 | 0.00 | 0.00 | 0.00 | 1016.6 | |
| 20260902041535 | -17 | 70 | 0.0 | 37.0 | 0.00 | 0.00 | 0.00 | 1016.8 | |
| 20260902040026 | -17 | 265 | 11.3 | 19.3 | 0.00 | 0.00 | 0.00 | 1016.7 | |
| 20260902034526 | -17 | 201 | 4.8 | 16.1 | 0.00 | 0.00 | 0.00 | 1017.0 | |
| 20260902033017 | -17 | 259 | 1.6 | 9.7 | 0.00 | 0.00 | 0.00 | 1017.1 | |
| 20260902031516 | -17 | 342 | 8.0 | 12.9 | 0.00 | 0.00 | 0.00 | 1017.1 | |
| 20260902030007 | -17 | 219 | 0.0 | 9.7 | 0.00 | 0.00 | 0.00 | 1017.2 | |
| 20260902024503 | -17 | 228 | 1.6 | 12.9 | 0.00 | 0.00 | 0.00 | 1017.2 | |
| 20260902023103 | -17 | 250 | 6.4 | 25.7 | 0.00 | 0.00 | 0.00 | 1017.1 | |
| 20260902021555 | -17 | 214 | 1.6 | 24.1 | 0.00 | 0.00 | 0.00 | 1017.2 | |
| 20260902020056 | -17 | 226 | 11.3 | 19.3 | 0.00 | 0.00 | 0.00 | 1017.2 | |
| 20260902014543 | -17 | 231 | 9.7 | 22.5 | 0.00 | 0.00 | 0.00 | 1017.4 | |
| 20260902013039 | -17 | 230 | 4.8 | 14.5 | 0.00 | 0.00 | 0.00 | 1017.6 | |
| 20260902011532 | -17 | 221 | 11.3 | 16.1 | 0.00 | 0.00 | 0.00 | 1017.7 | |
| 20260902010033 | -17 | 258 | 4.8 | 16.1 | 0.00 | 0.00 | 0.00 | 1017.8 | |
| 20260902004520 | -17 | 233 | 12.9 | 20.9 | 0.00 | 0.00 | 0.00 | 1017.8 | |
| 20260902003018 | -17 | 241 | 9.7 | 16.1 | 0.00 | 0.00 | 0.00 | 1018.0 | |
| 20260902001517 | -17 | 258 | 0.0 | 6.4 | 0.00 | 0.00 | 0.00 | 1017.9 | |
| 20260902000018 | -17 | 271 | 3.2 | 14.5 | 0.00 | 0.00 | 0.00 | 1018.0 | |
| 20260901234503 | -17 | 308 | 3.2 | 16.1 | 0.00 | 0.00 | 0.00 | 1018.2 | |
| 20260901233104 | -17 | 274 | 4.8 | 27.4 | 0.00 | 0.00 | 0.00 | 1018.4 | |
| 20260901231557 | -17 | 253 | 3.2 | 14.5 | 0.00 | 0.00 | 0.00 | 1018.4 | |
| 20260901230045 | -17 | 36 | 6.4 | 17.7 | 0.00 | 0.00 | 0.00 | 1018.4 | |
| 20260901224545 | -17 | 260 | 0.0 | 17.7 | 0.00 | 0.00 | 0.00 | 1018.3 | |
| 20260901223046 | -17 | 19 | 11.3 | 22.5 | 0.00 | 0.00 | 0.00 | 1018.5 | |
| 20260901221543 | -17 | 243 | 8.0 | 14.5 | 0.00 | 0.00 | 0.00 | 1018.6 | |
| 20260901220107 | -17 | 54 | 9.7 | 17.7 | 0.00 | 0.00 | 0.00 | 1018.5 | |
| 20260901214542 | -17 | 231 | 1.6 | 9.7 | 0.00 | 0.00 | 0.00 | 1018.7 | |
| 20260901213041 | -17 | 231 | 4.8 | 16.1 | 0.00 | 0.00 | 0.00 | 1018.6 | |
| 20260901211543 | -17 | 303 | 3.2 | 22.5 | 0.00 | 0.00 | 0.00 | 1018.4 | |
| 20260901210046 | -17 | 11 | 4.8 | 16.1 | 0.00 | 0.00 | 0.00 | 1018.3 | |
| 20260901204539 | -17 | 7 | 3.2 | 32.2 | 0.00 | 0.00 | 0.00 | 1018.0 | |
| 20260901203039 | -17 | 36 | 6.4 | 30.6 | 0.00 | 0.00 | 0.00 | 1017.8 | |
| 20260901201538 | -17 | 122 | 1.6 | 29.0 | 0.00 | 0.00 | 0.00 | 1017.6 | |
| 20260901200028 | -17 | 59 | 11.3 | 32.2 | 0.00 | 0.00 | 0.00 | 1017.4 | |
| 20260901194523 | -17 | 17 | 19.3 | 33.8 | 0.00 | 0.00 | 0.00 | 1017.2 | |
| 20260901193022 | -17 | 360 | 19.3 | 30.6 | 0.00 | 0.00 | 0.00 | 1017.0 | |
| 20260901191514 | -17 | 46 | 11.3 | 30.6 | 0.00 | 0.00 | 0.00 | 1017.0 | |
| 20260901190010 | -17 | 46 | 17.7 | 25.7 | 0.00 | 0.00 | 0.00 | 1017.0 | |
| 20260901184510 | -17 | 14 | 11.3 | 30.6 | 0.00 | 0.00 | 0.00 | 1016.9 | |
| 20260901183003 | -17 | 9 | 20.9 | 30.6 | 0.00 | 0.00 | 0.00 | 1016.7 | |
| 20260901181601 | -17 | 26 | 17.7 | 38.6 | 0.00 | 0.00 | 0.00 | 1016.9 | |
| 20260901180053 | -17 | 63 | 17.7 | 33.8 | 0.00 | 0.00 | 0.00 | 1016.9 | |
| 20260901174549 | -17 | 36 | 12.9 | 40.2 | 0.00 | 0.00 | 0.00 | 1016.9 | |
| 20260901173046 | -17 | 354 | 9.7 | 46.7 | 0.00 | 0.00 | 0.00 | 1016.9 | |
| 20260901171549 | -17 | 41 | 17.7 | 37.0 | 0.00 | 0.00 | 0.00 | 1016.9 | |
| 20260901170100 | -17 | 76 | 19.3 | 49.9 | 0.00 | 0.00 | 0.00 | 1016.8 | |
| 20260901164537 | -17 | 330 | 16.1 | 46.7 | 0.00 | 0.00 | 0.00 | 1016.7 | |
| 20260901163038 | -17 | 41 | 20.9 | 37.0 | 0.00 | 0.00 | 0.00 | 1016.7 |